Regional Weather Roundup
Issued by NWS Little Rock, AR

Home | Current Version | Previous Version | Graphics & Text | Print | Product List | Glossary On
Versions: 1 2 3 4 5 6 7 8 9 10 11 12 13 14 15 16 17 18 19 20 21 22 23 24 25 26 27 28 29 30 31 32 33 34 35 36 37 38 39 40 41 42 43 44 45 46 47 48 49 50
000
ASUS44 KLZK 202305
RWRLZK

WEATHER ROUNDUP FOR ARKANSAS
NATIONAL WEATHER SERVICE LITTLE ROCK AR
600 PM CDT MON OCT 20 2014

NOTE: "FAIR" INDICATES FEW OR NO CLOUDS BELOW 12,000 FEET WITH NO
SIGNIFICANT WEATHER AND/OR OBSTRUCTIONS TO VISIBILITY.

ARZ001-003-010-029-210000-
NORTHWEST ARKANSAS

CITY           SKY/WX    TMP DP  RH WIND       PRES   REMARKS
FAYETTEVILLE   CLOUDY    66  59  78 CALM      30.05S
FORT SMITH     CLEAR     70  57  63 NE6       30.02S
HARRISON       CLEAR     67  59  75 W3        30.04R
BENTONVILLE    PTCLDY    66  57  72 S6        30.05S
ROGERS         CLEAR     67  58  72 SW5       30.05S
SILOAM SPGS    CLOUDY    66  55  68 CALM      30.06S
HIGHFILL       MOCLDY    65  59  81 S5        30.04S
SPRINGDALE     MOCLDY    66  59  77 CALM      30.07R
$$

ARZ004-005-016-210000-
NORTH CENTRAL ARKANSAS

CITY           SKY/WX    TMP DP  RH WIND       PRES   REMARKS
BATESVILLE     CLEAR     70  57  64 W9        30.00S
FLIPPIN        CLEAR     72  55  56 W3        30.01S
MTN HOME       CLEAR     68  58  70 CALM      30.01R
$$

ARZ040-041-210000-
WEST CENTRAL ARKANSAS

CITY           SKY/WX    TMP DP  RH WIND       PRES   REMARKS
MENA           CLEAR     73  63  68 CALM      30.04S
MOUNT IDA      PTCLDY    68  60  75 CALM      30.02S
$$

ARZ009-017-025-026-028-210000-
NORTHEAST ARKANSAS

CITY           SKY/WX    TMP DP  RH WIND       PRES   REMARKS
CORNING        FAIR      70  59  68 SW9       29.97
JONESBORO      PTCLDY    70  54  56 SW7       29.98S
NEWPORT        PTCLDY    71  57  61 S8        30.00S
WALNUT RIDGE   MOCLDY    72  55  56 SW8       29.98S
BLYTHEVILLE    CLEAR     71  55  56 SW6       29.98S
$$

ARZ022-023-033-042-044-210000-
CENTRAL ARKANSAS

CITY           SKY/WX    TMP DP  RH WIND       PRES   REMARKS
LITTLE ROCK    PTCLDY    70  53  54 SW6       30.02F
JACKSONVILLE   CLEAR     70  57  64 W6        30.02S
SEARCY         CLEAR     69  56  62 SW3       30.02R
HOT SPRINGS    CLOUDY    68  57  68 CALM      30.04S
RUSSELLVILLE   PTCLDY    69  57  65 CALM      30.03R
$$

ARZ036-210000-
EAST ARKANSAS

CITY           SKY/WX    TMP DP  RH WIND       PRES   REMARKS
WEST MEMPHIS   CLEAR     68  53  58 SW3       30.00R
$$

ARZ050-053-066-070-073-210000-
SOUTHWEST ARKANSAS

CITY           SKY/WX    TMP DP  RH WIND       PRES   REMARKS
ARKADELPHIA    FAIR      71  61  70 CALM      30.03F
CAMDEN         MOCLDY    72  55  56 N3        30.03S HAZE
TEXARKANA      PTCLDY    74  55  51 CALM      30.03S
EL DORADO      CLEAR     72  57  59 CALM      30.04R
DE QUEEN       MOCLDY    73  60  63 CALM      30.01S
$$

ARZ056-057-069-210000-
SOUTHEAST ARKANSAS

CITY           SKY/WX    TMP DP  RH WIND       PRES   REMARKS
PINE BLUFF     CLEAR     69  55  60 W5        30.03S
STUTTGART      CLEAR     72  54  53 SW6       30.03S
MONTICELLO     CLEAR     71  57  61 CALM      30.02F

$$




USA.gov is the U.S. government's official web portal to all federal, state and local government web resources and services.